Location: Sebastopol
(38.4021°N, 122.8239°W)
Time: 15:15:12
(UTC+00:00)

SJ-12 - Pass Details

Date: 29 October 2020
Orbit: 568 x 586 km, 97.7° (Epoch: 30 November)

Event Time Altitude Azimuth Distance (km) Brightness Sun altitude
Rises 13:29:47 0° 7° (N) 2,805 7.4 -13.4°
Reaches altitude 10° 13:31:58 10° 4° (N) 1,898 6.5 -12.9°
Maximum altitude 13:36:01 59° 285° (WNW) 666 3.9 -12.1°
Drops below altitude 10° 13:40:01 10° 206° (SSW) 1,873 6.4 -11.4°
Sets 13:42:09 0° 202° (SSW) 2,764 7.3 -11.0°
